This is the latest recevied weather packets stored in our database for station/object KB1YYC. If no packets are shown the sender has not sent any weather packets the latest 10 day(s).
| Time | Temp. | Humidity | Pressure | Rain* | Wind** | Luminosity | Snow |
|---|---|---|---|---|---|---|---|
| 1777990619 | 20° C | 50% | 1008.3 hPa | 0 mm | - | 316 W/m² | - |
| 1777990011 | 20° C | 51% | 1007.9 hPa | 0 mm | - | 163 W/m² | - |
| 1777989708 | 20° C | 51% | 1007.8 hPa | 0 mm | - | 107 W/m² | - |
| 1777989404 | 20.56° C | 50% | 1007.5 hPa | 0 mm | - | 113 W/m² | - |
| 1777989101 | 20.56° C | 49% | 1007.4 hPa | 0 mm | - | 188 W/m² | - |
| 1777988797 | 21.11° C | 47% | 1007.5 hPa | 0 mm | - | 242 W/m² | - |
| 1777988494 | 21.67° C | 46% | 1007.9 hPa | 0 mm | - | 493 W/m² | - |
| 1777988191 | 21.11° C | 47% | 1008.2 hPa | 0 mm | - | 653 W/m² | - |
| 1777987887 | 20.56° C | 48% | 1008.2 hPa | 0 mm | - | 564 W/m² | - |
| 1777987583 | 20° C | 50% | 1008.4 hPa | 0 mm | - | 527 W/m² | - |
| 1777987282 | 19.44° C | 51% | 1008.2 hPa | 0 mm | - | 519 W/m² | - |
| 1777986978 | 19.44° C | 50% | 1008.5 hPa | 0 mm | - | 515 W/m² | - |
| 1777986676 | 19.44° C | 51% | 1008.8 hPa | 0 mm | - | 168 W/m² | - |
| 1777986374 | 18.89° C | 51% | 1008.5 hPa | 0 mm | - | 614 W/m² | - |
| 1777986072 | 18.33° C | 52% | 1008.7 hPa | 0 mm | - | 490 W/m² | - |
| 1777985768 | 18.89° C | 51% | 1008.6 hPa | 0 mm | - | 429 W/m² | - |
| 1777985465 | 18.89° C | 51% | 1008.7 hPa | 0 mm | - | 191 W/m² | - |
| 1777985161 | 18.89° C | 51% | 1008.6 hPa | 0 mm | - | 412 W/m² | - |
| 1777984858 | 18.33° C | 53% | 1008.7 hPa | 0 mm | - | 444 W/m² | - |
| 1777984554 | 18.33° C | 52% | 1008.6 hPa | 0 mm | - | 433 W/m² | - |
| 1777984250 | 18.33° C | 53% | 1008.2 hPa | 0 mm | - | 462 W/m² | - |
| 1777983947 | 17.22° C | 58% | 1008.1 hPa | 0 mm | - | 428 W/m² | - |
| 1777983644 | 17.22° C | 58% | 1008.2 hPa | 0 mm | - | 418 W/m² | - |
| 1777983341 | 16.67° C | 59% | 1008.1 hPa | 0 mm | - | 349 W/m² | - |
| 1777983038 | 16.11° C | 59% | 1008.4 hPa | 0 mm | - | 326 W/m² | - |
* Rain latest hour (hover to see other rain measurements)
** Current wind speed in m/s (hover to see current wind gust speed)